Weather History for Crosby, ND

Change the Weather History Date:

Tuesday, November 27, 2012

  Actual Average (KISN) Record (KISN)
Temperature  
Mean Temperature 19 °F 21 °F  
Max Temperature 24 °F 31 °F 67 °F (1949)
Min Temperature 14 °F 11 °F -20 °F (1985)
Degree Days  
Heating Degree Days 46 44  
Month to date heating degree days 1000  
Since 1 July heating degree days 2027  
Cooling Degree Days 0 0  
Month to date cooling degree days 0  
Year to date cooling degree days 456  
Moisture  
Dew Point 18 °F    
Average Humidity 94    
Maximum Humidity 100    
Minimum Humidity 86    
Precipitation  
Precipitation 0.00 in 0.02 in 0.18 in (1944)
Month to date precipitation 0.60  
Year to date precipitation 13.70  
Sea Level Pressure  
Sea Level Pressure 30.12 in    
Wind  
Wind Speed 6 mph (West)    
Max Wind Speed 14 mph    
Max Gust Speed -    
Visibility 9 miles    
Events      
T = Trace of Precipitation, MM = Missing Value Source: NWS Daily Summary

Daily Weather History Graph

Daily Weather History Graph

Search for Another Location

Airport:

Trip Planner

Search our weather history database for the weather conditions in past years. The results will help you decide how hot, cold, wet, or windy it might be!

Date:

Astronomy

Nov. 27, 2012 Rise Set
Actual Time 8:21 AM CST 5:00 PM CST
Civil Twilight 7:44 AM CST 5:36 PM CST
Nautical Twilight 7:05 AM CST 6:16 PM CST
Astronomical Twilight 6:27 AM CST 6:54 PM CST
Moon 4:34 PM CST (11/27) 7:26 AM CST (11/27)
Length of Visible Light 9h 51m
Length of Day
8h 39m
Waxing Gibbous, 99% of the Moon is Illuminated
Nov 27
Waxing Gibbous
Nov 28
Full
Dec 6
Last Quarter
Dec 13
New
Dec 19
First Quarter

Hourly Weather History & Observations

Time (CST) Temp. Windchill Dew Point Humidity Pressure Visibility Wind Dir Wind Speed Gust Speed Precip Events Conditions
12:15 AM 17.6 °F 9.3 °F 15.8 °F 93% 30.09 in 10.0 mi SW 5.8 mph - N/A   Overcast
12:35 AM 19.4 °F 14.3 °F 17.6 °F 93% 30.09 in 10.0 mi SW 3.5 mph - N/A   Overcast
12:55 AM 19.4 °F 14.3 °F 17.6 °F 93% 30.08 in 10.0 mi SW 3.5 mph - N/A   Overcast
1:15 AM 19.4 °F 14.3 °F 17.6 °F 93% 30.08 in 10.0 mi SW 3.5 mph - N/A   Overcast
1:35 AM 19.4 °F 14.3 °F 17.6 °F 93% 30.07 in 10.0 mi WSW 3.5 mph - N/A   Overcast
1:55 AM 19.4 °F 11.5 °F 17.6 °F 93% 30.07 in 10.0 mi West 5.8 mph - N/A   Overcast
2:15 AM 17.6 °F 10.7 °F 15.8 °F 93% 30.07 in 10.0 mi WSW 4.6 mph - N/A   Scattered Clouds
2:35 AM 15.8 °F - 14.0 °F 93% 30.08 in 10.0 mi Calm Calm - N/A   Mostly Cloudy
2:55 AM 19.4 °F 10.4 °F 17.6 °F 93% 30.08 in 10.0 mi WNW 6.9 mph - N/A   Overcast
3:15 AM 19.4 °F 10.4 °F 17.6 °F 93% 30.08 in 10.0 mi WNW 6.9 mph - N/A   Overcast
3:35 AM 19.4 °F 10.4 °F 17.6 °F 93% 30.08 in 10.0 mi WNW 6.9 mph - N/A   Overcast
3:55 AM 19.4 °F 12.8 °F 17.6 °F 93% 30.06 in 10.0 mi WSW 4.6 mph - N/A   Overcast
4:15 AM 17.6 °F 9.3 °F 15.8 °F 93% 30.06 in 10.0 mi SW 5.8 mph - N/A   Overcast
4:35 AM 14.0 °F 3.9 °F 14.0 °F 100% 30.05 in 10.0 mi South 6.9 mph - N/A   Overcast
4:55 AM 15.8 °F 10.2 °F 14.0 °F 93% 30.06 in 10.0 mi WSW 3.5 mph - N/A   Overcast
5:15 AM 17.6 °F 12.3 °F 15.8 °F 93% 30.07 in 10.0 mi WNW 3.5 mph - N/A   Overcast
5:55 AM 19.4 °F 10.4 °F 17.6 °F 93% 30.07 in 10.0 mi WNW 6.9 mph - N/A   Overcast
6:15 AM 19.4 °F 10.4 °F 17.6 °F 93% 30.07 in 10.0 mi West 6.9 mph - N/A   Overcast
6:35 AM 19.4 °F 11.5 °F 19.4 °F 100% 30.07 in 9.0 mi WSW 5.8 mph - N/A   Overcast
6:55 AM 19.4 °F 10.4 °F 19.4 °F 100% 30.06 in 3.0 mi WSW 6.9 mph - N/A   Overcast
7:15 AM 19.4 °F 8.6 °F 19.4 °F 100% 30.05 in 1.5 mi SW 9.2 mph - N/A   Overcast
7:35 AM 17.6 °F 5.0 °F 17.6 °F 100% 30.04 in 1.8 mi SSW 11.5 mph - N/A   Overcast
7:55 AM 17.6 °F 5.0 °F 15.8 °F 93% 30.04 in 1.2 mi SSW 11.5 mph - N/A   Overcast
8:15 AM 15.8 °F 2.7 °F 15.8 °F 100% 30.05 in 1.0 mi SSW 11.5 mph - N/A   Overcast
8:35 AM 15.8 °F 3.4 °F 14.0 °F 93% 30.09 in 8.0 mi NNW 10.4 mph - N/A   Scattered Clouds
8:55 AM 17.6 °F 6.4 °F 17.6 °F 100% 30.10 in 8.0 mi NNW 9.2 mph - N/A   Mostly Cloudy
9:15 AM 17.6 °F 8.2 °F 15.8 °F 93% 30.09 in 7.0 mi WSW 6.9 mph - N/A   Overcast
9:35 AM 15.8 °F 5.1 °F 15.8 °F 100% 30.10 in 10.0 mi WSW 8.1 mph - N/A   Mostly Cloudy
9:55 AM 15.8 °F 8.6 °F 15.8 °F 100% 30.11 in 7.0 mi WSW 4.6 mph - N/A   Scattered Clouds
10:15 AM 17.6 °F 9.3 °F 17.6 °F 100% 30.12 in 9.0 mi West 5.8 mph - N/A   Scattered Clouds
10:35 AM 17.6 °F 9.3 °F 17.6 °F 100% 30.12 in 10.0 mi West 5.8 mph - N/A   Overcast
10:55 AM 17.6 °F 6.4 °F 17.6 °F 100% 30.13 in 10.0 mi WNW 9.2 mph - N/A   Overcast
11:15 AM 19.4 °F 12.8 °F 17.6 °F 93% 30.13 in 10.0 mi West 4.6 mph - N/A   Overcast
11:35 AM 19.4 °F 12.8 °F 19.4 °F 100% 30.14 in 10.0 mi WNW 4.6 mph - N/A   Overcast
11:55 AM 19.4 °F 10.4 °F 19.4 °F 100% 30.14 in 10.0 mi WNW 6.9 mph - N/A   Overcast
12:15 PM 21.2 °F 13.6 °F 19.4 °F 93% 30.13 in 10.0 mi WNW 5.8 mph - N/A   Overcast
12:35 PM 23.0 °F 17.0 °F 19.4 °F 86% 30.13 in 10.0 mi WNW 4.6 mph - N/A   Overcast
12:55 PM 23.0 °F 17.0 °F 19.4 °F 86% 30.13 in 10.0 mi WNW 4.6 mph - N/A   Overcast
1:15 PM 23.0 °F 14.7 °F 19.4 °F 86% 30.13 in 10.0 mi WNW 6.9 mph - N/A   Overcast
1:35 PM 23.0 °F 10.6 °F 19.4 °F 86% 30.13 in 10.0 mi NW 13.8 mph - N/A   Overcast
1:55 PM 23.0 °F 13.1 °F 21.2 °F 93% 30.13 in 10.0 mi WNW 9.2 mph - N/A   Overcast
2:15 PM 23.0 °F 12.4 °F 21.2 °F 93% 30.13 in 10.0 mi NW 10.4 mph - N/A   Overcast
2:35 PM 24.8 °F 12.9 °F 21.2 °F 86% 30.13 in 10.0 mi NW 13.8 mph - N/A   Overcast
2:55 PM 23.0 °F 11.7 °F 21.2 °F 93% 30.14 in 10.0 mi NNW 11.5 mph - N/A   Overcast
3:15 PM 23.0 °F 11.7 °F 21.2 °F 93% 30.14 in 10.0 mi NW 11.5 mph - N/A   Overcast
3:35 PM 23.0 °F 13.1 °F 21.2 °F 93% 30.14 in 10.0 mi NW 9.2 mph - N/A   Overcast
3:55 PM 23.0 °F 12.4 °F 19.4 °F 86% 30.15 in 10.0 mi NNW 10.4 mph - N/A   Overcast
4:15 PM 23.0 °F 12.4 °F 19.4 °F 86% 30.15 in 10.0 mi NNW 10.4 mph - N/A   Overcast
4:35 PM 23.0 °F 13.1 °F 19.4 °F 86% 30.16 in 10.0 mi NW 9.2 mph - N/A   Overcast
4:55 PM 23.0 °F 11.7 °F 19.4 °F 86% 30.16 in 10.0 mi NW 11.5 mph - N/A   Overcast
5:15 PM 23.0 °F 13.9 °F 19.4 °F 86% 30.16 in 10.0 mi NNW 8.1 mph - N/A   Overcast
5:55 PM 21.2 °F 12.6 °F 19.4 °F 93% 30.17 in 10.0 mi NNW 6.9 mph - N/A   Overcast
6:15 PM 21.2 °F 12.6 °F 17.6 °F 86% 30.17 in 8.0 mi North 6.9 mph - N/A   Overcast
6:35 PM 19.4 °F 12.8 °F 17.6 °F 93% 30.17 in 8.0 mi North 4.6 mph - N/A   Overcast
6:55 PM 19.4 °F 12.8 °F 17.6 °F 93% 30.17 in 8.0 mi North 4.6 mph - N/A   Overcast
7:15 PM 19.4 °F - 17.6 °F 93% 30.17 in 7.0 mi Calm Calm - N/A   Overcast
7:35 PM 19.4 °F - 17.6 °F 93% 30.17 in 8.0 mi Calm Calm - N/A   Overcast
7:55 PM 19.4 °F - 17.6 °F 93% 30.17 in 7.0 mi Calm Calm - N/A   Overcast
8:15 PM 19.4 °F - 17.6 °F 93% 30.17 in 7.0 mi Calm Calm - N/A   Overcast
8:35 PM 19.4 °F - 17.6 °F 93% 30.18 in 8.0 mi Calm Calm - N/A   Overcast
8:55 PM 21.2 °F - 19.4 °F 93% 30.17 in 8.0 mi Calm Calm - N/A   Overcast
9:15 PM 21.2 °F 14.9 °F 19.4 °F 93% 30.18 in 8.0 mi SSW 4.6 mph - N/A   Overcast
9:35 PM 21.2 °F 13.6 °F 19.4 °F 93% 30.17 in 10.0 mi SW 5.8 mph - N/A   Overcast
9:55 PM 21.2 °F 14.9 °F 21.2 °F 100% 30.17 in 9.0 mi SW 4.6 mph - N/A   Overcast
10:15 PM 21.2 °F 14.9 °F 21.2 °F 100% 30.16 in 9.0 mi SSW 4.6 mph - N/A   Overcast
10:55 PM 21.2 °F 13.6 °F 21.2 °F 100% 30.15 in 7.0 mi SSW 5.8 mph - N/A   Overcast
11:15 PM 21.2 °F 12.6 °F 21.2 °F 100% 30.15 in 7.0 mi SSW 6.9 mph - N/A   Overcast
11:35 PM 21.2 °F 12.6 °F 21.2 °F 100% 30.15 in 7.0 mi SSW 6.9 mph - N/A   Overcast
11:55 PM 21.2 °F 11.7 °F 21.2 °F 100% 30.14 in 5.0 mi SSW 8.1 mph - N/A   Overcast